Regional Weather Roundup
Issued by NWS

Home | Current Version | Previous Version | Text Only | Print | Product List | Glossary On
Versions: 1 2 3 4 5 6 7 8 9 10 11 12 13 14 15 16 17 18 19 20 21 22 23 24 25 26 27 28 29 30 31 32 33 34 35 36 37 38 39 40 41 42 43 44 45 46 47 48 49 50
000
ASUS43 KTOP 250608
RWRKS

WEATHER ROUNDUP FOR KANSAS
NATIONAL WEATHER SERVICE GOODLAND KS
1200 AM CST SUN JAN 25 2015

NOTE:  "FAIR" INDICATES FEW OR NO CLOUDS BELOW 12,000 FEET WITH NO
SIGNIFICANT WEATHER AND/OR OBSTRUCTIONS TO VISIBILITY.

KSZ001>006-013>018-027>032-041>047-250700-
NORTHWEST KANSAS

CITY           SKY/WX    TMP DP  RH WIND       PRES   REMARKS
GOODLAND       CLOUDY    41  30  65 NW31G45   30.03R
6HR MIN TEMP:  41; 6HR MAX TEMP:  48;

HAYS           MOCLDY    50  30  46 NW21G30   29.88R
HILL CITY      CLOUDY    47  34  60 NW28G37   29.90R
6HR MIN TEMP:  45; 6HR MAX TEMP:  49; 6HR PCP:  0.01;

RUSSELL        CLOUDY    49  36  61 NW25G33   29.85R
6HR MIN TEMP:  47; 6HR MAX TEMP:  57; 6HR PCP:  0.02;

$$

KSZ061>065-074>080-084>089-250700-
SOUTHWEST KANSAS

CITY           SKY/WX    TMP DP  RH WIND       PRES   REMARKS
DODGE CITY     CLOUDY    48  32  53 NW15      29.96S
6HR MIN TEMP:  47; 6HR MAX TEMP:  54; 6HR PCP: TRACE;

ELKHART          N/A    N/A N/A N/A MISG        N/A
GARDEN CITY    CLOUDY    47  31  53 NW20G25   29.99S
6HR MIN TEMP:  45; 6HR MAX TEMP:  50; 6HR PCP: TRACE;

GREAT BEND     MOCLDY    48  32  53 NW17      29.88S
LIBERAL        MOCLDY    43  28  56 NW16      30.05R
PRATT          CLOUDY    50  34  53 NW17G24   29.91R
$$

KSZ066>073-081>083-090>101-250700-
SOUTHEAST KANSAS

CITY           SKY/WX    TMP DP  RH WIND       PRES   REMARKS
CHANUTE        CLOUDY    50  36  58 SW6       29.75F
6HR MIN TEMP:  49; 6HR MAX TEMP:  55; 6HR PCP: TRACE;

COFFEYVILLE    CLOUDY    52  32  46 SW8       29.78F
6HR MIN TEMP:  49; 6HR MAX TEMP:  56;

HUTCHINSON     CLOUDY    52  36  54 NW17      29.84R
6HR MIN TEMP:  52; 6HR MAX TEMP:  59; 6HR PCP: TRACE;

MEDICINE LODGE   N/A     54  36  50 NW16G25   29.89R
NEWTON         CLOUDY    48  36  61 W16       29.82R
PARSONS        CLOUDY    50  34  54 SW6       29.77F
6HR MIN TEMP:  50; 6HR MAX TEMP:  55; 6HR PCP: TRACE;

WICHITA INTL   CLOUDY    54  34  46 NW17      29.82R
6HR MIN TEMP:  49; 6HR MAX TEMP:  60; 6HR PCP: TRACE;

WICHITA JABRA  CLOUDY    51  36  56 W15       29.81R
6HR MIN TEMP:  50; 6HR MAX TEMP:  58; 6HR PCP: TRACE;

WICHITA MCCONL CLOUDY    54  35  49 NW13G20   29.81R
WINFIELD       CLOUDY    50  29  44 W12       29.82R
6HR MIN TEMP:  48; 6HR MAX TEMP:  54;

$$

KSZ007>012-019>026-033>040-048>060-102>105-250700-
NORTHEAST KANSAS

CITY           SKY/WX    TMP DP  RH WIND       PRES   REMARKS
CONCORDIA      MOCLDY    44  35  70 W9        29.76R
6HR MIN TEMP:  44; 6HR MAX TEMP:  54; 6HR PCP: TRACE;

EMPORIA        CLOUDY    46  39  76 W10       29.73S
6HR MIN TEMP:  45; 6HR MAX TEMP:  56; 6HR PCP: TRACE;

LAWRENCE       CLOUDY    47  41  80 W9        29.70S
6HR MIN TEMP:  44; 6HR MAX TEMP:  55; 6HR PCP:  0.04;

MANHATTAN      CLOUDY    49  38  65 W10G18    29.73R
6HR MIN TEMP:  48; 6HR MAX TEMP:  57; 6HR PCP: TRACE;

MARYSVILLE     CLOUDY    45  36  70 NW9       29.70S
OLATHE IND     CLOUDY    46  42  86 W10       29.69F
6HR MIN TEMP:  45; 6HR MAX TEMP:  54; 6HR PCP:  0.06;

OLATHE EXE     CLOUDY    46  43  89 W10       29.68F
6HR MIN TEMP:  45; 6HR MAX TEMP:  54; 6HR PCP:  0.06;

SALINA         PTCLDY    49  38  65 NW20      29.80R
6HR MIN TEMP:  48; 6HR MAX TEMP:  57; 6HR PCP:  0.03;

TOPEKA BILLARD CLOUDY    47  40  76 W5        29.70F
6HR MIN TEMP:  47; 6HR MAX TEMP:  56; 6HR PCP: TRACE;

TOPEKA FORBES  CLOUDY    49  40  71 W9        29.69F
6HR MIN TEMP:  49; 6HR MAX TEMP:  57; 6HR PCP: TRACE;

$$



USA.gov is the U.S. government's official web portal to all federal, state and local government web resources and services.